TimeCDT,TemperatureF,Dew PointF,Humidity,Sea Level PressureIn,VisibilityMPH,Wind Direction,Wind SpeedMPH,Gust SpeedMPH,PrecipitationIn,Events,Conditions,WindDirDegrees,DateUTC
12:53 AM,71.1,62.1,73,29.97,10.0,Calm,Calm,-,N/A,,Partly Cloudy,0,2013-10-18 05:53:00
1:53 AM,70.0,63.0,78,29.94,10.0,NNE,3.5,-,N/A,,Scattered Clouds,20,2013-10-18 06:53:00
2:53 AM,71.1,62.1,73,29.92,10.0,Calm,Calm,-,N/A,,Overcast,0,2013-10-18 07:53:00
3:10 AM,71.6,60.8,69,29.93,10.0,NE,4.6,-,N/A,,Overcast,40,2013-10-18 08:10:00
3:53 AM,71.1,59.0,66,29.91,10.0,NE,6.9,-,N/A,,Overcast,40,2013-10-18 08:53:00
4:53 AM,71.1,59.0,66,29.90,10.0,NE,6.9,-,N/A,,Overcast,40,2013-10-18 09:53:00
5:53 AM,70.0,59.0,68,29.91,10.0,NNE,6.9,-,N/A,,Overcast,30,2013-10-18 10:53:00
6:39 AM,69.8,60.8,73,29.92,10.0,NNE,5.8,-,N/A,,Overcast,30,2013-10-18 11:39:00
6:53 AM,70.0,60.1,71,29.92,10.0,NE,6.9,-,N/A,,Overcast,40,2013-10-18 11:53:00
7:53 AM,69.1,62.1,78,29.92,10.0,NNE,5.8,-,N/A,,Overcast,30,2013-10-18 12:53:00
8:53 AM,71.1,64.9,81,29.93,10.0,NE,6.9,-,N/A,,Overcast,50,2013-10-18 13:53:00
9:14 AM,71.6,66.2,83,29.93,10.0,NE,8.1,-,N/A,,Scattered Clouds,50,2013-10-18 14:14:00
9:53 AM,75.9,68.0,76,29.92,10.0,NE,12.7,-,N/A,,Mostly Cloudy,40,2013-10-18 14:53:00
10:25 AM,75.2,69.8,83,29.94,10.0,ENE,9.2,-,N/A,,Overcast,70,2013-10-18 15:25:00
10:45 AM,77.0,69.8,78,29.93,10.0,ENE,10.4,-,N/A,,Overcast,70,2013-10-18 15:45:00
10:53 AM,78.1,70.0,76,29.93,10.0,ENE,11.5,-,N/A,,Overcast,70,2013-10-18 15:53:00
11:53 AM,78.1,70.0,76,29.91,10.0,East,10.4,-,N/A,,Overcast,80,2013-10-18 16:53:00
12:40 PM,80.6,69.8,70,29.90,10.0,ENE,8.1,-,N/A,,Mostly Cloudy,60,2013-10-18 17:40:00
12:53 PM,80.1,71.1,74,29.88,10.0,East,6.9,-,N/A,,Mostly Cloudy,90,2013-10-18 17:53:00
1:53 PM,82.9,71.1,67,29.85,10.0,NE,6.9,-,N/A,,Mostly Cloudy,50,2013-10-18 18:53:00
2:01 PM,82.4,71.6,70,29.85,10.0,ENE,6.9,-,N/A,,Mostly Cloudy,60,2013-10-18 19:01:00
2:53 PM,84.0,71.1,65,29.82,10.0,ENE,5.8,-,N/A,,Mostly Cloudy,70,2013-10-18 19:53:00
3:53 PM,82.0,71.1,69,29.80,10.0,ENE,6.9,-,N/A,,Mostly Cloudy,70,2013-10-18 20:53:00
4:53 PM,82.0,71.1,69,29.79,10.0,ENE,8.1,-,N/A,,Overcast,60,2013-10-18 21:53:00
5:53 PM,82.9,71.1,67,29.79,10.0,NNE,6.9,-,N/A,,Overcast,30,2013-10-18 22:53:00
6:07 PM,82.4,71.6,70,29.80,10.0,NE,9.2,-,N/A,,Mostly Cloudy,40,2013-10-18 23:07:00
6:53 PM,78.1,71.1,79,29.80,10.0,NE,9.2,-,N/A,,Clear,50,2013-10-18 23:53:00
7:53 PM,77.0,72.0,84,29.83,10.0,NE,10.4,-,N/A,,Overcast,40,2013-10-19 00:53:00
8:53 PM,77.0,73.0,88,29.86,10.0,NE,8.1,-,N/A,,Overcast,50,2013-10-19 01:53:00
9:14 PM,77.0,73.4,89,29.87,10.0,ENE,5.8,-,N/A,,Overcast,70,2013-10-19 02:14:00
9:53 PM,75.9,73.0,91,29.88,10.0,NE,6.9,-,N/A,,Mostly Cloudy,40,2013-10-19 02:53:00
10:33 PM,75.2,71.6,89,29.90,10.0,NNE,8.1,-,N/A,,Overcast,30,2013-10-19 03:33:00
10:44 PM,75.2,71.6,89,29.90,10.0,NNE,8.1,-,N/A,,Overcast,30,2013-10-19 03:44:00
10:53 PM,75.9,72.0,87,29.89,10.0,NNE,6.9,-,N/A,,Overcast,20,2013-10-19 03:53:00
11:08 PM,75.2,71.6,89,29.90,10.0,NNE,8.1,-,N/A,,Overcast,30,2013-10-19 04:08:00
11:53 PM,75.0,72.0,90,29.90,10.0,NNE,9.2,-,N/A,,Overcast,20,2013-10-19 04:53:00